Location: ?????????
(52.1500°N, 54.4000°E)
Time: 08:52:11
(UTC+00:00)

Daily predictions for brighter satellites

Satellite Brightness Start Highest point End
(mag) Time Altitude Azimuth Time Altitude Azimuth Time Altitude Azimuth
Cosmos 2154 Rocket 4.2 13:20:44 10° SSE 13:26:48 55° E 13:32:51 10° NNE
ATLAS 5 CENTAUR R/B 2.6 13:25:15 10° W 13:29:29 41° NNW 13:34:20 10° NE
ALOS 4.4 13:27:14 10° SSW 13:31:25 32° W 13:35:38 10° NNW
ISS -1.7 13:33:05 10° S 13:35:27 18° SE 13:37:49 10° E
Cosmos 1300 2.9 13:31:40 10° NNW 13:35:30 80° W 13:39:19 10° S
Cosmos 2298 Rocket 4.5 13:31:01 10° SW 13:36:18 67° WNW 13:41:38 10° NNE
Cosmos 1610 Rocket 4.5 13:31:00 10° S 13:37:04 68° E 13:43:13 10° NNE
NOSS 2-1 (E) 4.4 13:32:03 10° NW 13:37:09 87° NE 13:44:19 10° SE
Cosmos 2333 Rocket 4.2 13:32:43 10° NW 13:37:53 35° WSW 13:42:58 10° S
COSMO-SKYMED 1 3.8 13:36:43 10° NE 13:40:07 22° E 13:43:29 10° SE
Cosmos 2074 Rocket 4.2 13:35:45 10° SSW 13:42:02 80° W 13:48:22 10° N
Cosmos 1939 Rocket 4.2 13:41:20 10° ESE 13:44:09 19° ENE 13:46:59 10° NNE
CORIOLIS 4.2 13:39:21 10° SSE 13:44:43 85° ENE 13:50:07 10° NNW
Cosmos 1758 Rocket 4.1 13:41:44 10° SSE 13:45:39 35° E 13:49:36 10° NNE
Cosmos 1626 Rocket 3.6 13:44:14 10° SSW 13:48:33 84° WNW 13:52:54 10° N
Starlink T 2.8 13:45:37 10° W 13:48:45 79° N 13:51:36 12° E
Cosmos 1455 2.8 13:45:27 10° N 13:48:58 33° ENE 13:52:26 10° SE
SL-16 R/B 2.3 13:43:56 10° NNW 13:49:33 56° NE 13:55:08 10° SE
Starlink N 2.8 13:47:24 10° W 13:50:32 78° N 13:53:19 12° E
Cosmos 1607 4.1 13:45:12 10° SW 13:51:20 73° NW 13:57:34 10° NE
Starlink Q 2.9 13:49:26 10° W 13:52:34 78° N 13:55:17 13° E
Cosmos 2251 Rocket 3.8 13:48:23 10° NNW 13:53:29 45° ENE 13:58:35 10° SE
Starlink P 2.9 13:51:17 10° W 13:54:26 77° N 13:57:04 14° E
Starlink U 2.9 13:53:09 10° W 13:56:17 77° N 13:58:51 14° E
Meteor 2-17 Rocket 4.5 13:51:56 10° S 13:58:00 66° E 14:04:05 10° NNE
Starlink B 2.9 13:55:01 10° W 13:58:09 76° N 14:00:39 15° E
H-2A R/B 3.7 13:56:55 12° ENE 13:58:40 14° NE 14:01:13 10° NNE
CZ-2D R/B 4.3 13:55:40 10° ESE 13:58:46 24° ENE 14:01:55 10° N
PSLV R/B 3.9 13:55:09 10° NNE 13:59:16 87° WNW 14:03:22 10° SSW
Cosmos 2219 3.2 13:54:56 10° SSW 14:00:29 66° ESE 14:06:06 10° NE
SJ 16-02 3.9 13:58:36 10° W 14:01:09 15° NW 14:03:43 10° N
Nadezhda 3 Rocket 4.4 13:55:08 10° NNW 14:01:25 71° W 14:07:42 10° S
Meteor 1-24 Rocket 4.4 13:57:54 10° SSW 14:03:09 56° WNW 14:08:35 10° N
ERBS 2.4 14:02:08 10° SW 14:05:25 60° SE 14:07:46 17° ENE
Cosmos 44 4.0 14:01:49 10° S 14:05:48 30° ESE 14:08:42 15° ENE
Meteor 2-10 Rocket 3.5 14:01:14 10° N 14:06:31 59° ENE 14:11:35 10° SSE
USA 32 4.0 14:01:23 10° S 14:06:32 63° E 14:11:43 10° NNE
Cosmos 1271 Rocket 4.3 14:04:07 10° SW 14:07:36 36° WNW 14:11:09 10° N
Cosmos 2297 Rocket 2.4 14:02:25 10° S 14:07:55 55° ESE 14:13:27 10° NE
Cosmos 1825 Rocket 3.7 14:04:42 10° S 14:08:55 52° E 14:13:08 10° NNE
Cosmos 1125 Rocket 3.9 14:04:07 10° SW 14:09:17 66° WNW 14:14:31 10° NNE
Starlink D 2.9 14:07:08 10° W 14:10:18 74° N 14:12:21 20° E
Okean O Rocket 4.4 14:08:07 10° SW 14:11:37 22° W 14:15:08 10° NW
Starlink S 2.9 14:09:07 10° W 14:12:17 74° N 14:14:15 21° E
Cosmos 1727 Rocket 4.3 14:06:38 10° N 14:12:32 44° ENE 14:18:23 10° SE
CZ-4B R/B 4.1 14:10:48 10° NNW 14:12:36 15° WNW 14:14:24 10° W
Starlink AR 2.4 14:11:17 10° W 14:13:52 69° N 14:15:09 25° ENE
Starlink C 2.9 14:11:02 10° W 14:14:12 74° N 14:16:06 22° E
ATLAS CENTAUR R/B 4.1 14:08:38 10° WSW 14:14:37 77° NNW 14:29:00 15° ENE
Starlink E 2.9 14:13:02 10° W 14:16:12 74° N 14:18:01 23° E
Envisat 3.3 14:11:13 10° S 14:16:17 73° WSW 14:21:23 10° NNW
USA 267 3.3 14:11:02 14° ENE 14:16:53 81° SSE 14:23:27 10° WSW
Okean-O 2.8 14:13:16 10° SSE 14:17:41 78° WSW 14:22:10 10° NNW
Starlink J 2.9 14:15:01 10° W 14:18:11 73° N 14:19:56 24° E
Cosmos 1242 Rocket 4.4 14:15:45 10° SW 14:18:56 31° WNW 14:22:12 10° N
ATLAS CENTAUR R/B 1.2 14:15:18 10° NW 14:19:28 68° NE 14:23:17 10° SE
Starlink V 2.9 14:16:58 10° W 14:20:09 73° N 14:21:49 25° E
Cosmos 2227 Rocket 2.2 14:15:21 10° SSW 14:20:55 63° ESE 14:26:26 10° NE
CZ-4 R/B 1.4 14:17:07 10° SSE 14:21:11 65° ENE 14:25:20 10° N
ARGOS 4.4 14:19:59 18° ENE 14:21:17 19° NE 14:24:59 10° N
Meteor 1-21 Rocket 4.2 14:15:54 10° S 14:21:31 75° E 14:27:17 10° NNE
Starlink H 2.9 14:18:59 10° W 14:22:09 73° N 14:23:45 26° E
SL-8 Rocket 4.0 14:16:03 10° S 14:22:14 61° E 14:28:24 10° NNE
Cosmos 2221 3.4 14:19:35 10° N 14:23:12 26° ENE 14:26:42 10° SE
NOAA 11 4.2 14:18:05 10° SE 14:23:27 56° ENE 14:28:49 10° N
Starlink F 2.9 14:20:59 10° W 14:24:09 73° N 14:25:40 28° E
Shenzhou-11 Module 4.4 14:24:31 10° S 14:25:20 11° S 14:26:10 10° SSE
Starlink G 2.9 14:22:59 10° W 14:26:08 73° N 14:27:35 29° E
Starlink L 2.9 14:24:58 10° W 14:28:08 73° N 14:29:30 31° E
SKYMED 2 3.6 14:24:09 10° NNE 14:28:29 58° ESE 14:32:45 10° S
FengYun 1-2 T 4.4 14:23:21 10° SSE 14:29:01 82° WSW 14:34:44 10° NNW
Cosmos-2242 3.2 14:25:44 10° NNW 14:30:04 75° W 14:34:20 10° S
Starlink A 2.9 14:26:57 10° W 14:30:09 73° N 14:31:26 32° E
Starlink R 2.9 14:28:58 10° W 14:32:09 73° N 14:33:22 34° E
Cosmos 407 Rocket 4.3 14:28:37 10° NNW 14:33:21 31° NE 14:35:39 22° E
Cosmos 1943 3.8 14:28:52 10° NNW 14:34:02 35° NE 14:37:00 22° E
Starlink K 2.9 14:30:57 10° W 14:34:07 73° N 14:35:16 36° E
Cosmos 1328 3.9 14:30:29 10° S 14:34:22 52° E 14:38:18 10° NNE
Starlink M 2.9 14:32:55 10° W 14:36:06 74° N 14:37:10 38° ENE
Starlink AS 2.6 14:33:28 10° W 14:36:24 72° N 14:37:11 43° ENE
Starlink BA 2.6 14:33:39 10° W 14:36:35 72° N 14:37:22 44° ENE
Starlink AU 2.6 14:33:54 10° W 14:36:50 72° N 14:37:36 44° ENE
Starlink AT 2.6 14:34:07 10° W 14:37:03 72° N 14:37:48 44° ENE
Starlink BB 2.6 14:34:21 10° W 14:37:17 72° N 14:38:02 45° ENE
Starlink BC 2.6 14:34:34 10° W 14:37:29 72° N 14:38:14 45° ENE
Starlink BK 2.6 14:34:47 10° W 14:37:43 73° N 14:38:27 45° ENE
Cosmos 2341 Rocket 4.1 14:31:28 10° S 14:37:51 84° W 14:44:14 10° N
Starlink AY 2.6 14:34:55 10° W 14:37:52 73° N 14:38:35 45° ENE
Starlink AW 2.6 14:35:14 10° W 14:38:10 73° N 14:38:53 46° ENE
Starlink BJ 2.6 14:35:23 10° W 14:38:19 73° N 14:39:02 46° ENE
Starlink AV 2.6 14:35:37 10° W 14:38:33 73° N 14:39:15 46° ENE
Starlink BD 2.6 14:35:55 10° W 14:38:51 73° N 14:39:32 47° ENE
Starlink BE 2.7 14:36:07 10° W 14:39:05 73° N 14:39:47 47° ENE
Starlink BM 2.6 14:36:23 10° W 14:39:19 73° N 14:39:59 48° ENE
Starlink AX 2.6 14:36:32 10° W 14:39:28 73° N 14:40:07 48° ENE
Starlink BH 2.6 14:36:50 10° W 14:39:45 73° N 14:40:25 48° ENE
Starlink AQ 2.7 14:36:49 10° W 14:39:46 73° N 14:40:27 48° ENE
Starlink AZ 2.6 14:37:04 10° W 14:39:59 73° N 14:40:39 49° ENE
Starlink BG 2.6 14:37:16 10° W 14:40:13 73° N 14:40:51 49° ENE
Starlink BF 2.6 14:37:29 10° W 14:40:25 73° N 14:41:03 49° ENE
Starlink BL 2.7 14:37:36 10° W 14:40:33 73° N 14:41:12 49° ENE
Starlink AH 2.6 14:37:58 10° W 14:40:53 73° N 14:41:30 50° ENE
Starlink AC 2.6 14:38:11 10° W 14:41:07 73° N 14:41:43 51° ENE
Starlink X 2.6 14:38:24 10° W 14:41:20 73° N 14:41:55 51° ENE
Starlink AE 2.7 14:38:27 10° W 14:41:26 73° N 14:42:02 50° ENE
Cosmos 724 4.4 14:35:30 10° SW 14:41:27 79° NW 14:46:09 17° NE
Starlink Z 2.6 14:38:51 10° W 14:41:47 73° N 14:42:22 52° ENE
Starlink AK 2.6 14:39:04 10° W 14:42:00 73° N 14:42:34 52° ENE
Starlink AL 2.6 14:39:17 10° W 14:42:13 73° N 14:42:46 52° ENE
Starlink AD 2.6 14:39:32 10° W 14:42:29 73° N 14:43:01 53° ENE
Starlink Y 2.6 14:39:59 10° W 14:42:55 73° N 14:43:27 54° ENE
Starlink AG 2.6 14:40:04 10° W 14:43:00 73° N 14:43:31 54° ENE
Cosmos 1356 Rocket 3.2 14:39:19 10° N 14:43:21 64° ENE 14:47:24 10° SSE
Starlink W 2.6 14:40:24 10° W 14:43:22 74° N 14:43:54 53° ENE
Starlink AJ 2.6 14:40:35 10° W 14:43:32 73° N 14:44:02 55° ENE
Starlink AM 2.6 14:41:07 10° W 14:44:03 74° N 14:44:32 56° ENE
Starlink AP 2.6 14:41:19 10° W 14:44:15 74° N 14:44:44 56° ENE
Starlink AA 2.6 14:41:34 10° W 14:44:30 74° N 14:44:58 57° ENE
Starlink AF 2.6 14:41:46 10° W 14:44:43 74° N 14:45:10 57° ENE
Starlink AB 2.6 14:41:59 10° W 14:44:56 74° N 14:45:23 57° ENE
Starlink AN 2.6 14:42:14 10° W 14:45:10 74° N 14:45:37 58° ENE
CZ-2C R/B 4.2 14:45:14 25° ENE 14:45:51 26° ENE 14:50:27 10° N
YAOGAN 1 2.5 14:43:25 10° SSE 14:47:45 88° WSW 14:52:07 10° NNW
YAOGAN 6 4.2 14:46:56 10° SSW 14:50:22 38° W 14:53:49 10° NNW
CSL-04 Debris 4.1 14:45:47 10° SSE 14:51:11 89° W 14:56:39 10° NNW
Cosmos 1821 Rocket 4.4 14:50:10 10° SSE 14:55:56 38° E 15:01:39 10° NNE
Cosmos 864 Rocket 4.4 14:53:11 10° S 14:59:18 83° E 15:05:30 10° NNE
Ariane Rocket 3.0 14:54:42 10° SE 14:59:38 54° ENE 15:04:37 10° N
Cosmos 2218 Rocket 4.1 14:56:57 10° S 15:03:20 86° W 15:09:48 10° N
Cosmos 1703 3.3 15:01:41 10° SSW 15:05:39 78° WNW 15:09:15 13° N
Cosmos 2082 Rocket 4.3 15:04:26 10° NNW 15:06:06 11° N 15:07:39 10° NNE
SL-08 R/B 4.4 15:00:04 10° S 15:06:21 71° E 15:12:47 10° NNE
ISS -3.4 15:08:27 10° WSW 15:11:33 54° S 15:11:33 54° S
SL-8 R/B 4.2 15:08:00 10° WSW 15:12:38 47° SSE 15:13:37 41° SE
CSL-04 Rocket 4.2 15:07:47 10° S 15:13:15 64° WSW 15:18:48 10° NNW
ADEOS Rocket 3.4 15:07:19 10° NNE 15:13:50 55° E 15:20:58 10° S
ATLAS 5 CENTAUR R/B 3.5 15:11:27 10° WNW 15:15:24 24° N 15:17:01 21° NNE
SWAS 4.4 15:11:59 10° SSW 15:16:13 59° ESE 15:16:14 59° ESE
COSMO-SKYMED 1 3.4 15:12:20 10° N 15:16:33 51° WNW 15:20:46 10° SW
Cosmos 2123 Rocket 4.2 15:11:36 10° N 15:17:41 46° ENE 15:19:24 38° ESE
Cosmos 1939 Rocket 3.5 15:14:50 10° S 15:18:42 56° W 15:22:40 10° NNW
Cosmos 1953 Rocket 4.5 15:14:39 10° SSW 15:19:01 49° WNW 15:23:24 10° N
Cosmos 1842 Rocket 3.7 15:15:28 10° NNW 15:19:58 78° W 15:24:27 10° S
Cosmos 614 Rocket 3.9 15:17:23 10° NNW 15:22:36 69° ENE 15:24:02 47° SE
Starlink T 4.0 15:21:29 10° WNW 15:23:44 43° WNW 15:23:44 43° WNW
Cosmos 1000 Rocket 4.3 15:19:45 10° N 15:25:59 78° E 15:32:13 10° SSE
Starlink N 4.1 15:23:17 10° WNW 15:25:28 41° WNW 15:25:28 41° WNW
Meteor 2-12 Rocket 4.3 15:22:23 10° S 15:28:26 82° E 15:34:32 10° NNE
Starlink Q 4.2 15:25:19 10° WNW 15:27:25 39° WNW 15:27:25 39° WNW
ATLAS 5 CENTAUR R/B 3.3 15:25:37 10° NW 15:29:53 80° NE 15:38:25 23° ESE
Starlink P 4.4 15:27:11 10° WNW 15:29:13 37° WNW 15:29:13 37° WNW
Starlink U 4.5 15:29:02 10° WNW 15:31:00 35° W 15:31:00 35° W
SL-16 R/B 4.0 15:28:28 10° NW 15:33:25 32° WSW 15:38:20 10° SSW
Cosmos 1023 Rocket 4.5 15:29:16 10° NNW 15:34:21 60° NE 15:34:21 60° NE
DMSP B5D1-3 4.5 15:31:24 14° NNE 15:35:48 84° WNW 15:40:55 10° SSW
H-2A R/B 2.0 15:37:32 62° NE 15:37:32 62° NE 15:42:16 10° N
Cosmos 2084 4.5 15:33:41 10° NW 15:36:55 37° N 15:36:55 37° N
NOSS 3-3 (A) 4.4 15:34:09 10° NW 15:41:26 77° NE 15:44:10 45° ESE
NOSS 3-3 (C) 4.4 15:34:15 10° NW 15:41:32 77° NE 15:44:14 45° ESE
ERBS 4.1 15:38:42 10° W 15:40:46 30° WNW 15:40:46 30° WNW
SJ-11-01 4.3 15:41:02 46° S 15:42:27 83° WSW 15:47:13 10° NNW
Cosmos 1140 Rocket 3.5 15:39:10 10° NNW 15:43:58 65° NNE 15:43:58 65° NNE
Cosmos 2082 4.2 15:39:23 10° SW 15:44:56 58° NW 15:47:46 29° NNE
Cosmos 1603 3.8 15:40:55 10° NNW 15:46:36 73° WSW 15:48:48 38° SSE
Cosmos 44 3.6 15:42:26 10° WSW 15:46:50 51° NW 15:47:09 50° NNW
Cosmos 2297 Rocket 3.5 15:47:03 10° WSW 15:52:15 36° NW 15:55:39 19° N
CZ-4 R/B 4.4 15:54:02 10° SW 15:56:40 16° W 15:59:19 10° NW
ATLAS CENTAUR R/B 3.8 15:55:05 10° WNW 15:57:53 18° WSW 15:59:44 14° SSW
USA 267 3.4 15:58:22 51° NE 15:59:50 63° N 16:06:16 10° W
ARGOS 3.2 16:01:29 71° N 16:01:29 71° N 16:06:18 10° NNW
Cosmos 2221 3.8 15:56:54 10° NNW 16:00:55 40° W 16:03:55 16° SSW
Cosmos 2263 Rocket 3.8 15:56:06 10° S 15:57:53 21° S 15:57:53 21° S
Cosmos 2227 Rocket 3.7 16:00:18 10° WSW 16:05:22 33° NW 16:08:17 21° N
SPOT 3 Rocket 4.4 16:07:57 39° N 16:07:57 39° N 16:11:11 10° NNW
Cosmos 1190 Rocket 4.4 16:09:07 10° NNW 16:14:08 63° W 16:14:08 63° W
Cosmos 407 Rocket 4.1 16:10:29 10° NNW 16:15:39 54° WSW 16:15:55 54° WSW
Cosmos 1943 3.7 16:12:51 10° NW 16:18:23 56° WSW 16:18:52 54° SW
CZ-2C R/B 3.7 16:26:17 56° NW 16:26:17 56° NW 16:30:55 10° NNW
ADEOS Rocket 4.4 16:53:12 10° N 16:59:12 40° WNW 17:05:46 10° SW
ATLAS 5 CENTAUR R/B 4.2 16:56:52 10° NW 16:58:33 19° NNW 16:58:33 19° NNW
H-2A R/B 4.3 17:18:07 20° WNW 17:18:07 20° WNW 17:21:01 10° NW
ATLAS 3B R/B 4.1 23:33:12 32° ENE 23:33:12 32° ENE 23:37:17 10° E
CENTAUR R/B 3.5 23:51:18 60° ENE 23:51:18 60° ENE 23:58:53 10° ESE
